LOT3839 EPWA-EPGD

Flight info

Callsign LOT3839
Flight time 0h 41m
Altitude 28000
Route OLILA L621 RILAB DCT OSLOG
Aircraft B738/M-SDE2E3FGHIRWXY/LB1

Departure

Time 2026-05-06 18:50
Airport Warsaw Chopin Airport (EPWA)

Arrival

Time 2026-05-06 19:32
Airport Gdańsk Lech Wałęsa Airport (EPGD)
Time Latitude Longitude Altitude Speed Heading
2026-05-06 18:21 52.17004 20.96843 338 ft 0 kts 276°
2026-05-06 18:45 52.17005 20.96829 338 ft 3 kts 276°
2026-05-06 18:45 52.16998 20.96770 336 ft 5 kts 238°
2026-05-06 18:46 52.16963 20.96771 336 ft 5 kts 158°
2026-05-06 18:46 52.16925 20.96803 336 ft 8 kts 152°
2026-05-06 18:46 52.16868 20.96851 336 ft 11 kts 151°
2026-05-06 18:46 52.16792 20.96918 335 ft 14 kts 151°
2026-05-06 18:47 52.16697 20.97003 336 ft 17 kts 149°
2026-05-06 18:47 52.16636 20.97153 337 ft 16 kts 114°
2026-05-06 18:47 52.16591 20.97314 336 ft 15 kts 114°
2026-05-06 18:47 52.16548 20.97468 337 ft 15 kts 115°
2026-05-06 18:48 52.16505 20.97618 335 ft 15 kts 115°
2026-05-06 18:48 52.16468 20.97750 336 ft 11 kts 115°
2026-05-06 18:48 52.16422 20.97805 338 ft 8 kts 184°
2026-05-06 18:48 52.16375 20.97775 337 ft 7 kts 204°
2026-05-06 18:49 52.16329 20.97741 334 ft 7 kts 207°
2026-05-06 18:49 52.16306 20.97680 334 ft 5 kts 275°
2026-05-06 18:49 52.16311 20.97656 336 ft 0 kts 290°
2026-05-06 18:49 52.16311 20.97654 336 ft 1 kts 290°
2026-05-06 18:50 52.16387 20.97380 337 ft 63 kts 295°
2026-05-06 18:50 52.16669 20.96376 339 ft 130 kts 294°
2026-05-06 18:50 52.17117 20.94790 533 ft 167 kts 296°
2026-05-06 18:50 52.17604 20.93141 1455 ft 157 kts 293°
2026-05-06 18:51 52.18081 20.91511 2168 ft 164 kts 293°
2026-05-06 18:51 52.18843 20.89959 2523 ft 197 kts 322°
2026-05-06 18:51 52.20146 20.88935 2825 ft 221 kts 333°
2026-05-06 18:51 52.21629 20.87889 3042 ft 243 kts 332°
2026-05-06 18:52 52.23123 20.86584 3553 ft 253 kts 322°
2026-05-06 18:52 52.24550 20.84748 4056 ft 266 kts 316°
2026-05-06 18:52 52.25991 20.82848 4934 ft 267 kts 320°
2026-05-06 18:52 52.27554 20.81189 5810 ft 269 kts 324°
2026-05-06 18:53 52.29168 20.79623 6596 ft 272 kts 324°
2026-05-06 18:53 52.30799 20.77980 7266 ft 278 kts 322°
2026-05-06 18:53 52.32424 20.76211 7984 ft 282 kts 321°
2026-05-06 18:53 52.34051 20.74395 8790 ft 283 kts 320°
2026-05-06 18:54 52.35678 20.72563 9582 ft 286 kts 320°
2026-05-06 18:54 52.37330 20.70676 10196 ft 293 kts 320°
2026-05-06 18:54 52.39037 20.68708 10589 ft 309 kts 319°
2026-05-06 18:54 52.40854 20.66598 10813 ft 330 kts 320°
2026-05-06 18:55 52.42786 20.64365 11055 ft 350 kts 320°
2026-05-06 18:55 52.44828 20.62017 11324 ft 366 kts 321°
2026-05-06 18:55 52.46934 20.59619 11926 ft 372 kts 321°
2026-05-06 18:55 52.49083 20.57182 12531 ft 377 kts 321°
2026-05-06 18:56 52.51253 20.54723 13231 ft 381 kts 320°
2026-05-06 18:56 52.53451 20.52225 13721 ft 390 kts 320°
2026-05-06 18:56 52.55721 20.49632 14063 ft 401 kts 320°
2026-05-06 18:56 52.57989 20.47047 15051 ft 393 kts 320°
2026-05-06 18:57 52.60230 20.44488 15884 ft 392 kts 320°
2026-05-06 18:57 52.62477 20.41913 16531 ft 396 kts 320°
2026-05-06 18:57 52.64755 20.39294 17094 ft 402 kts 319°
2026-05-06 18:57 52.67061 20.36642 17685 ft 407 kts 319°
2026-05-06 18:58 52.69385 20.33956 18286 ft 409 kts 318°
2026-05-06 18:58 52.71541 20.30929 18840 ft 405 kts 308°
2026-05-06 18:58 52.73425 20.27494 19417 ft 404 kts 306°
2026-05-06 18:58 52.75258 20.24029 19953 ft 408 kts 306°
2026-05-06 18:59 52.77140 20.20500 20466 ft 411 kts 306°
2026-05-06 18:59 52.79056 20.16960 20993 ft 414 kts 307°
2026-05-06 18:59 52.80989 20.13410 21507 ft 417 kts 307°
2026-05-06 18:59 52.82902 20.09788 22021 ft 419 kts 305°
2026-05-06 19:00 52.84773 20.06086 22519 ft 421 kts 304°
2026-05-06 19:00 52.86639 20.02334 22995 ft 424 kts 304°
2026-05-06 19:00 52.88516 19.98555 23426 ft 427 kts 304°
2026-05-06 19:00 52.90412 19.94748 23824 ft 429 kts 304°
2026-05-06 19:01 52.92322 19.90926 24223 ft 432 kts 304°
2026-05-06 19:01 52.94244 19.87084 24591 ft 434 kts 304°
2026-05-06 19:01 52.96180 19.83216 24962 ft 437 kts 304°
2026-05-06 19:01 52.98124 19.79326 25322 ft 439 kts 304°
2026-05-06 19:02 53.00091 19.75410 25592 ft 444 kts 304°
2026-05-06 19:02 53.02074 19.71463 26000 ft 444 kts 304°
2026-05-06 19:02 53.04046 19.67524 26476 ft 443 kts 304°
2026-05-06 19:02 53.06070 19.63634 26505 ft 450 kts 308°
2026-05-06 19:03 53.08437 19.60192 26539 ft 453 kts 317°
2026-05-06 19:03 53.10927 19.57126 26526 ft 450 kts 318°
2026-05-06 19:03 53.13473 19.54076 26534 ft 451 kts 318°
2026-05-06 19:03 53.16025 19.51026 26536 ft 452 kts 318°
2026-05-06 19:04 53.18581 19.47948 26538 ft 453 kts 318°
2026-05-06 19:04 53.21107 19.44885 26397 ft 443 kts 318°
2026-05-06 19:04 53.23574 19.41873 25804 ft 438 kts 318°
2026-05-06 19:04 53.26023 19.38858 25060 ft 438 kts 318°
2026-05-06 19:05 53.28472 19.35828 24334 ft 438 kts 318°
2026-05-06 19:05 53.30908 19.32807 23725 ft 435 kts 318°
2026-05-06 19:05 53.33325 19.29808 23154 ft 430 kts 318°
2026-05-06 19:05 53.35717 19.26841 22533 ft 425 kts 318°
2026-05-06 19:06 53.38084 19.23905 21895 ft 421 kts 318°
2026-05-06 19:06 53.40427 19.20988 21258 ft 418 kts 318°
2026-05-06 19:06 53.42750 19.18089 20655 ft 415 kts 318°
2026-05-06 19:06 53.45054 19.15208 20067 ft 411 kts 318°
2026-05-06 19:07 53.47338 19.12351 19495 ft 408 kts 318°
2026-05-06 19:07 53.49601 19.09515 18934 ft 405 kts 318°
2026-05-06 19:07 53.51848 19.06698 18388 ft 402 kts 318°
2026-05-06 19:07 53.54078 19.03898 17814 ft 398 kts 319°
2026-05-06 19:08 53.56288 19.01119 17233 ft 395 kts 318°
2026-05-06 19:08 53.58446 18.98403 16672 ft 391 kts 318°
2026-05-06 19:08 53.60616 18.95669 16116 ft 387 kts 318°
2026-05-06 19:08 53.62759 18.92964 15566 ft 384 kts 318°
2026-05-06 19:09 53.64890 18.90271 15021 ft 381 kts 318°
2026-05-06 19:09 53.66999 18.87601 14549 ft 377 kts 318°
2026-05-06 19:09 53.69059 18.84994 14423 ft 363 kts 317°
2026-05-06 19:09 53.71038 18.82488 14321 ft 349 kts 317°
2026-05-06 19:10 53.72942 18.80072 14226 ft 336 kts 317°
2026-05-06 19:10 53.74777 18.77741 14160 ft 323 kts 317°
2026-05-06 19:10 53.76541 18.75497 14092 ft 312 kts 316°
2026-05-06 19:10 53.78185 18.73198 13912 ft 302 kts 312°
2026-05-06 19:11 53.79734 18.70827 13623 ft 300 kts 310°
2026-05-06 19:11 53.81265 18.68436 13264 ft 299 kts 310°
2026-05-06 19:11 53.82789 18.66062 12928 ft 297 kts 311°
2026-05-06 19:11 53.84309 18.63707 12599 ft 295 kts 311°
2026-05-06 19:12 53.85823 18.61373 12271 ft 294 kts 311°
2026-05-06 19:12 53.87333 18.59052 11948 ft 292 kts 311°
2026-05-06 19:12 53.87823 18.58299 11847 ft 292 kts 311°
2026-05-06 19:12 53.88889 18.56662 11616 ft 291 kts 311°
2026-05-06 19:13 53.90384 18.54367 11304 ft 289 kts 311°
2026-05-06 19:13 53.91862 18.52098 11114 ft 283 kts 311°
2026-05-06 19:13 53.93306 18.49885 10943 ft 277 kts 311°
2026-05-06 19:13 53.94740 18.47676 10569 ft 279 kts 311°
2026-05-06 19:14 53.96167 18.45481 10360 ft 274 kts 311°
2026-05-06 19:14 53.97575 18.43314 10101 ft 273 kts 311°
2026-05-06 19:14 53.99111 18.41376 9823 ft 279 kts 323°
2026-05-06 19:14 54.00847 18.39857 9554 ft 281 kts 327°
2026-05-06 19:15 54.02612 18.38447 9273 ft 280 kts 328°
2026-05-06 19:15 54.04350 18.37060 8999 ft 279 kts 328°
2026-05-06 19:15 54.06095 18.35647 8733 ft 277 kts 328°
2026-05-06 19:15 54.07826 18.34223 8473 ft 276 kts 328°
2026-05-06 19:16 54.09549 18.32791 8223 ft 274 kts 328°
2026-05-06 19:16 54.11236 18.31382 8163 ft 265 kts 327°
2026-05-06 19:16 54.12855 18.30025 8044 ft 253 kts 327°
2026-05-06 19:16 54.14417 18.28709 7760 ft 249 kts 327°
2026-05-06 19:17 54.15964 18.27400 7395 ft 248 kts 327°
2026-05-06 19:17 54.17504 18.26095 7089 ft 247 kts 328°
2026-05-06 19:17 54.19040 18.24795 6932 ft 243 kts 328°
2026-05-06 19:17 54.20545 18.23521 6915 ft 241 kts 328°
2026-05-06 19:18 54.22052 18.22242 6865 ft 242 kts 328°
2026-05-06 19:18 54.23569 18.20953 6817 ft 246 kts 328°
2026-05-06 19:18 54.25115 18.19641 6765 ft 251 kts 329°
2026-05-06 19:18 54.26819 18.18998 6656 ft 256 kts
2026-05-06 19:19 54.28525 18.19798 6604 ft 255 kts 20°
2026-05-06 19:19 54.30149 18.20990 6515 ft 257 kts 20°
2026-05-06 19:19 54.31819 18.22072 6479 ft 253 kts
2026-05-06 19:19 54.33549 18.22094 6317 ft 250 kts 338°
2026-05-06 19:20 54.34959 18.20551 6209 ft 238 kts 305°
2026-05-06 19:20 54.35791 18.18169 6218 ft 229 kts 292°
2026-05-06 19:20 54.36430 18.15705 6253 ft 228 kts 288°
2026-05-06 19:20 54.37005 18.13170 6293 ft 228 kts 287°
2026-05-06 19:21 54.37578 18.10589 6043 ft 239 kts 288°
2026-05-06 19:21 54.38183 18.07961 5943 ft 233 kts 289°
2026-05-06 19:21 54.38802 18.05407 5936 ft 225 kts 289°
2026-05-06 19:21 54.39401 18.02948 5935 ft 223 kts 289°
2026-05-06 19:22 54.39989 18.00514 5892 ft 225 kts 289°
2026-05-06 19:22 54.40595 17.98007 5853 ft 229 kts 289°
2026-05-06 19:22 54.41208 17.95464 5789 ft 231 kts 289°
2026-05-06 19:22 54.41824 17.92908 5727 ft 232 kts 290°
2026-05-06 19:23 54.42439 17.90350 5669 ft 232 kts 289°
2026-05-06 19:23 54.43192 17.87894 5577 ft 236 kts 309°
2026-05-06 19:23 54.44535 17.86356 5515 ft 233 kts 340°
2026-05-06 19:23 54.46123 17.86146 5472 ft 229 kts
2026-05-06 19:24 54.47634 17.86939 5427 ft 227 kts 20°
2026-05-06 19:24 54.48602 17.87614 5400 ft 227 kts 20°
2026-05-06 19:24 54.49964 17.89024 5313 ft 233 kts 46°
2026-05-06 19:24 54.50708 17.91466 5257 ft 233 kts 81°
2026-05-06 19:25 54.50552 17.94191 5233 ft 230 kts 110°
2026-05-06 19:25 54.49972 17.96754 5176 ft 229 kts 115°
2026-05-06 19:25 54.49342 17.99278 4896 ft 231 kts 115°
2026-05-06 19:25 54.48711 18.01824 4685 ft 230 kts 114°
2026-05-06 19:26 54.48087 18.04348 4512 ft 227 kts 114°
2026-05-06 19:26 54.47477 18.06839 4311 ft 226 kts 113°
2026-05-06 19:26 54.46874 18.09318 4122 ft 223 kts 112°
2026-05-06 19:26 54.46289 18.11725 4072 ft 213 kts 112°
2026-05-06 19:27 54.45734 18.14008 3989 ft 200 kts 112°
2026-05-06 19:27 54.45214 18.16156 3902 ft 189 kts 112°
2026-05-06 19:27 54.44723 18.18180 3736 ft 180 kts 112°
2026-05-06 19:27 54.44243 18.20153 3514 ft 178 kts 111°
2026-05-06 19:28 54.43771 18.22093 3293 ft 174 kts 111°
2026-05-06 19:28 54.43312 18.23978 2988 ft 174 kts 109°
2026-05-06 19:28 54.42855 18.25843 2808 ft 167 kts 109°
2026-05-06 19:28 54.42417 18.27637 2691 ft 160 kts 109°
2026-05-06 19:29 54.41981 18.29427 2588 ft 163 kts 109°
2026-05-06 19:29 54.41546 18.31229 2500 ft 165 kts 104°
2026-05-06 19:29 54.41139 18.33098 2240 ft 167 kts 107°
2026-05-06 19:29 54.40711 18.34849 1988 ft 153 kts 107°
2026-05-06 19:30 54.40305 18.36464 1770 ft 143 kts 106°
2026-05-06 19:30 54.39917 18.38011 1541 ft 141 kts 106°
2026-05-06 19:30 54.39527 18.39568 1337 ft 144 kts 106°
2026-05-06 19:30 54.39122 18.41159 1116 ft 145 kts 107°
2026-05-06 19:31 54.38711 18.42740 819 ft 144 kts 106°
2026-05-06 19:31 54.38331 18.44301 594 ft 141 kts 107°
2026-05-06 19:31 54.37653 18.47051 457 ft 91 kts 113°
2026-05-06 19:32 54.37463 18.47813 469 ft 48 kts 113°
2026-05-06 19:32 54.37348 18.48270 481 ft 36 kts 116°
2026-05-06 19:32 54.37294 18.48534 491 ft 12 kts 85°
2026-05-06 19:32 54.37350 18.48623 486 ft 12 kts 22°
2026-05-06 19:33 54.37417 18.48655 489 ft 4 kts 352°
2026-05-06 19:33 54.37437 18.48621 488 ft 4 kts 302°
2026-05-06 19:33 54.37451 18.48574 487 ft 6 kts 296°
2026-05-06 19:33 54.37475 18.48482 477 ft 12 kts 294°
2026-05-06 19:34 54.37514 18.48322 475 ft 17 kts 292°
2026-05-06 19:34 54.37568 18.48108 472 ft 21 kts 293°
2026-05-06 19:34 54.37627 18.47872 467 ft 21 kts 293°
2026-05-06 19:34 54.37683 18.47644 463 ft 21 kts 293°
2026-05-06 19:35 54.37739 18.47421 459 ft 20 kts 292°
2026-05-06 19:35 54.37791 18.47206 459 ft 19 kts 293°
2026-05-06 19:35 54.37838 18.47018 458 ft 15 kts 293°
2026-05-06 19:35 54.37878 18.46858 458 ft 13 kts 293°
2026-05-06 19:36 54.37911 18.46726 456 ft 12 kts 292°
2026-05-06 19:36 54.37937 18.46622 459 ft 6 kts 297°
2026-05-06 19:36 54.37966 18.46580 459 ft 6 kts 341°
2026-05-06 19:36 54.38003 18.46592 459 ft 5 kts 25°
2026-05-06 19:37 54.38038 18.46618 456 ft 5 kts 18°
2026-05-06 19:37 54.38073 18.46605 459 ft 3 kts 342°
2026-05-06 19:37 54.38093 18.46605 459 ft 3 kts 12°
2026-05-06 19:37 54.38110 18.46615 459 ft 1 kts 22°
2026-05-06 19:38 54.38117 18.46620 459 ft 1 kts 22°
2026-05-06 19:38 54.38119 18.46622 459 ft 0 kts 22°
2026-05-06 19:42 54.37954 18.46551 470 ft 0 kts 194°
2026-05-06 19:42 54.38340 18.44399 737 ft 215 kts 294°
2026-05-06 19:42 54.38889 18.42183 511 ft 183 kts 294°
2026-05-06 19:42 54.38988 18.41164 426 ft 0 kts 355°
2026-05-06 19:44 54.38988 18.41165 426 ft 0 kts
2026-05-06 19:44 54.38987 18.41165 426 ft 0 kts 15°
2026-05-06 19:45 54.38987 18.41166 426 ft 0 kts 18°
2026-05-06 19:46 54.38985 18.40717 1245 ft 0 kts 97°